STARLINK-2654, 48454

Orbit data source: Space-Track

STARLINK-2654, 48454 is a payload satellite owned by SpaceX/Seattle (US) in LEO that was launched on Sun, 09 May 2021 UTC via an FALCON 9 launch vehicle from the Air Force Eastern Test Range (AFETR). Payload-class satellites include a variety of spacecraft equipped with specific instruments for various scientific and technological missions. These include communications satellites like Starlink; space stations such as the ISS; scientific satellites like the Hubble; Earth observation satellites from companies like Planet Labs, Umbra, and HawkEye 360; GPS; miniature CubeSats for education and research; and military/defense satellites.

Loading next visibility...
Identifier
48454, 2021-040AC
Orbit
LEO
Country
Flag of USUS
Related business
Manufacturer
SpaceX/Seattle
Mission
Operational Commercial Communications
Bus & Motor
STARLINK, Unknown motor
Mass
260 kg wet, ~248 kg dry
Launch date (UTC)
2021-05-09 (5 years ago)
Launch vehicle
FALCON 9
Launch site
Air Force Eastern Test Range (AFETR)
Object type
Payload
Rocket body
Debris
Shape & HBR
Box + 1 Pan, 10.1 m
Radar Cross Section
13.562 m², Large (>1 m²)

Expand to show TLE details & history
Last TLE update: 2 days ago

TLE from 2 days ago
0 STARLINK-2654
1 48454U 21040AC  26171.41353234  .00000064  00000-0  13843-4 0  9997
2 48454  53.1631  60.1964 0001699  82.3140 277.8054 15.31702025282422
Epoch: 2026-06-20T09:55Z
TLE epoch observation values (Epoch: 2026-06-20T09:55:29.194Z)
Latitude
-0.00003°
Longitude
2.69622°
Altitude
471.477 km
Speed
7.632 km/s
True Right ascension
04h 00m 47s
True Declination
0° 00' 00"
Sunlit
Object was in daylight at epoch
Visualization orbit readout
Latitude
Unknown
Longitude
Unknown
Altitude
Unknown
Speed
Unknown
Apparent Right ascension
Unknown
Apparent Declination
Unknown
Sunlit
N/A
Visualization observer readout
Local Sidereal Time
21:33:06
Azimuth
Unknown
Elevation
Unknown
Doppler factor
Unknown
Orbital elements
Apogee altitude
472.154 km
Perigee altitude
469.826 km
Semi-major axis
6,849.127 km
Eccentricity
0.00017
Inclination
53.1631°
RAAN
60.1964°
Arg. of periapsis
82.314°
True anomaly
277.78611°
Mean anomaly
277.8054°
Eccentric anomaly
277.79576°
Mean motion
3.82904 °/min
Orbital period
94.02 mins
BSTAR
0.000013843
Loading maneuver chart data...
Computing Atmospheric mass density...

Documentation

Showing up to 5 results
|